User: anonymous   Login
Location: Croagnes
(43.9363°N, 5.3265°E)
Time: 12:13:02
(UTC+00:00)
Language:

KORONAS-FOTON - Orbit

View from above orbital plane
View from above orbital plane
View from above satellite
View from above satellite

Ground track
Ground track

The orbit data is extracted from the following two-line orbital elements,

1 33504U 09003A   20226.87219766 +.00000042 +00000-0 +45296-6 0  9993
2 33504 082.4438 165.6950 0020779 081.2103 279.1481 15.15679654636082
Epoch (UTC): 13 August 2020 20:55:57
Eccentricity: 0.0020779
inclination: 82.4438°
perigee height: 504 km
apogee height: 533 km
right ascension of ascending node: 165.6950°
argument of perigee: 81.2103°
revolutions per day: 15.15679654
mean anomaly at epoch: 279.1481°
orbit number at epoch: 63608

The dashed part of the orbit path shows where the satellite is in the earth's shadow,  

DLR